Flag for Congo Weather past 2 weeks in Impfondo, Congo

Now
90 °F

Broken clouds.


Feels Like: 96 °F
Forecast: 73 / 84 °F
Wind: 3 mph from North

Location: Bangui Airport

Current Time: Mar 28, 2015 at 3:31:06 PM

Latest Report: Mar 28, 2015 at 3:00 PM


Visibility: N/A

Pressure: 29.80 "Hg

Humidity: 55%

Dew point: 72 °F

Location of ImpfondoLocation

Historic Weather in Impfondo — Graph

°F

Impfondo temperature yesterday

Maximum temperature yesterday: 79 °F (at 1:00 PM)
Minimum temperature yesterday: 72 °F (at 10:00 PM)
Average temperature yesterday: 76 °F

Past Weeks' High & Low Weather Summary

 TemperatureHumidityPressure
High100 °F (Mar 16, 2:00 PM)100% (Mar 15, 2:00 AM)30.01 "Hg (Mar 15, 2:00 AM)
Low68 °F (Mar 28, 6:00 AM)35% (Mar 16, 2:00 PM)29.65 "Hg (Mar 15, 4:00 PM)
Average83 °F75%29.79 "Hg
* Reported Mar 13 2:00 PM — Mar 28 2:00 PM, Impfondo, Weather by CustomWeather, © 2015

Note: Actual official high and low records may vary slightly from our data, if they occured in-between our weather recording intervals... More about our weather records

Advertising

Impfondo weather history for previous 24 hours

 ConditionsComfort  
Time TempWeatherWind HumidityBarometerVisibility
2:00 PM
Sat, Mar 28
91 °FBroken clouds.7 mph52%29.80 "HgN/A
10:00 AM82 °FScattered clouds.5 mph70%29.95 "HgN/A
9:00 AM79 °FScattered clouds.5 mph74%29.95 "HgN/A
8:00 AM75 °FPassing clouds.2 mph89%29.95 "HgN/A
7:00 AM72 °FPartly sunny.No wind94%29.92 "HgN/A
6:00 AM68 °FPartly sunny.No wind100%29.89 "HgN/A
5:00 AM70 °FPassing clouds.1 mph100%29.89 "HgN/A
4:00 AM70 °FPassing clouds.No wind100%29.89 "HgN/A
3:00 AM72 °FPassing clouds.No wind94%29.89 "HgN/A
2:00 AM72 °FPassing clouds.2 mph94%29.89 "HgN/A
1:00 AM72 °FPassing clouds.2 mph100%29.89 "HgN/A
12:00 AM72 °FPassing clouds.No wind100%29.92 "HgN/A
11:00 PM
Fri, Mar 27
72 °FPassing clouds.No wind94%29.95 "HgN/A
10:00 PM72 °FPassing clouds.2 mph100%29.95 "HgN/A
9:00 PM73 °FPassing clouds.No wind94%29.95 "HgN/A
8:00 PM75 °FPassing clouds.No wind89%29.92 "HgN/A
7:00 PM75 °FPartly cloudy.5 mph89%29.92 "HgN/A
6:00 PM77 °FPartly cloudy.5 mph79%29.89 "HgN/A
5:00 PM77 °FBroken clouds.7 mph83%29.89 "HgN/A
4:00 PM79 °FBroken clouds.8 mph79%29.89 "HgN/A
3:00 PM79 °FBroken clouds.7 mph79%29.89 "HgN/A
Weather by CustomWeather, © 2015

See weather overviewHow to use our weather pages